Location: Bluff Heights
(33.7692°N, 118.1592°W)
Time: 18:29:28
(UTC+00:00)

Vanguard 1 Rocket - Pass Details

Date: 25 September 2021
Orbit: 650 x 4225 km, 34.3° (Epoch: 23 October)

Event Time Altitude Azimuth Distance (km) Brightness Sun altitude
Rises 03:38:57 0° 234° (SW) 2,958 10.6 -24.0°
Reaches altitude 10° 03:41:11 10° 227° (SW) 2,043 9.6 -24.5°
Enters shadow 03:44:13 36° 192° (SSW) 1,083 7.7 -25.1°
